EW6241 Weather Reports


Display with metric or nautical units.
time (UTC)temp
F
wind
direction
speed
MPH
gust
MPH
rain 1hr
in
rain 24hr
in
rain mn
in
humidity
%
barometer
mb
20171215231959 55 92 0.0 2.0 0.00 0.00 0.00 40 1022.7
20171215230959 56 92 0.0 2.0 0.00 0.00 0.00 38 1022.9
20171215230000 56 92 0.0 2.0 0.00 0.00 0.00 36 1022.9
20171215224959 57 92 1.0 2.0 0.00 0.00 0.00 36 1023.0
20171215223959 58 79 1.0 4.0 0.00 0.00 0.00 34 1023.0
20171215222959 58 90 0.0 3.0 0.00 0.00 0.00 34 1023.0
20171215222000 59 11 1.0 3.0 0.00 0.00 0.00 33 1023.0
20171215221000 59 98 1.0 3.0 0.00 0.00 0.00 33 1022.7
20171215220000 58 52 3.0 6.0 0.00 0.00 0.00 33 1022.6
20171215215000 59 36 1.0 4.0 0.00 0.00 0.00 33 1022.6
20171215214000 60 16 1.0 4.0 0.00 0.00 0.00 32 1022.7
20171215213000 59 59 1.0 6.0 0.00 0.00 0.00 31 1022.6
20171215212000 59 286 1.0 8.0 0.00 0.00 0.00 32 1022.5
20171215211000 60 5 3.0 10.0 0.00 0.00 0.00 32 1022.5
20171215210000 59 61 2.0 7.0 0.00 0.00 0.00 34 1022.5
20171215205000 60 32 1.0 10.0 0.00 0.00 0.00 34 1022.4
20171215204000 60 32 4.0 9.0 0.00 0.00 0.00 35 1022.6
20171215203000 59 24 4.0 6.0 0.00 0.00 0.00 36 1022.7
20171215202000 59 198 2.0 8.0 0.00 0.00 0.00 36 1022.9
20171215201000 58 41 3.0 6.0 0.00 0.00 0.00 37 1023.1
20171215200000 58 71 2.0 8.0 0.00 0.00 0.00 38 1023.5
20171215195000 58 53 3.0 8.0 0.00 0.00 0.00 38 1023.7
20171215194000 58 40 2.0 8.0 0.00 0.00 0.00 40 1023.7
20171215193000 57 59 2.0 9.0 0.00 0.00 0.00 39 1023.7
20171215192000 58 159 4.0 8.0 0.00 0.00 0.00 41 1023.8
20171215191000 57 54 1.0 9.0 0.00 0.00 0.00 41 1024.1
20171215190000 56 316 5.0 9.0 0.00 0.00 0.00 45 1024.4
20171215185000 56 350 2.0 11.0 0.00 0.00 0.00 43 1024.3
20171215184000 56 5 3.0 10.0 0.00 0.00 0.00 45 1024.4
20171215183000 54 28 5.0 9.0 0.00 0.00 0.00 48 1024.4
20171215182000 54 336 2.0 9.0 0.00 0.00 0.00 48 1024.6
20171215181000 53 42 3.0 6.0 0.00 0.00 0.00 48 1024.9
20171215180000 53 328 2.0 5.0 0.00 0.00 0.00 49 1025.0
20171215175000 52 28 1.0 7.0 0.00 0.00 0.00 51 1025.3
20171215174000 51 355 3.0 6.0 0.00 0.00 0.00 50 1025.3
20171215173001 51 38 2.0 9.0 0.00 0.00 0.00 50 1025.5
20171215172000 51 35 4.0 8.0 0.00 0.00 0.00 50 1025.9
20171215171000 51 328 1.0 8.0 0.00 0.00 0.00 51 1026.2
20171215170000 50 9 4.0 9.0 0.00 0.00 0.00 51 1026.2
20171215165000 50 12 3.0 8.0 0.00 0.00 0.00 52 1026.1
20171215164000 50 331 3.0 9.0 0.00 0.00 0.00 51 1026.0
20171215163001 50 355 1.0 10.0 0.00 0.00 0.00 51 1025.9
20171215162000 49 295 3.0 10.0 0.00 0.00 0.00 52 1025.9
20171215161001 49 236 5.0 10.0 0.00 0.00 0.00 53 1025.8
20171215160000 48 5 2.0 11.0 0.00 0.00 0.00 52 1025.7
20171215155001 48 360 2.0 8.0 0.00 0.00 0.00 53 1025.5
20171215154001 48 313 1.0 9.0 0.00 0.00 0.00 54 1025.3
20171215153000 48 355 3.0 9.0 0.00 0.00 0.00 54 1025.1
20171215152001 47 344 3.0 9.0 0.00 0.00 0.00 54 1024.9
20171215151001 47 26 2.0 8.0 0.00 0.00 0.00 55 1024.7
20171215150001 46 355 3.0 10.0 0.00 0.00 0.00 55 1024.7
20171215145001 46 10 2.0 3.0 0.00 0.00 0.00 55 1024.7
20171215144001 45 333 0.0 5.0 0.00 0.00 0.00 56 1024.5
20171215143001 45 333 0.0 5.0 0.00 0.00 0.00 56 1024.5
20171215142001 45 333 0.0 5.0 0.00 0.00 0.00 56 1024.6
20171215141001 45 333 0.0 5.0 0.00 0.00 0.00 56 1024.3
20171215140001 45 333 0.0 5.0 0.00 0.00 0.00 56 1024.1
20171215135001 45 333 0.0 5.0 0.00 0.00 0.00 56 1024.2
20171215134001 45 333 0.0 5.0 0.00 0.00 0.00 56 1024.0
20171215133001 45 333 0.0 5.0 0.00 0.00 0.00 56 1023.8
20171215132001 45 333 0.0 5.0 0.00 0.00 0.00 56 1023.9
20171215131001 45 333 0.0 5.0 0.00 0.00 0.00 56 1024.0
20171215130001 45 333 0.0 5.0 0.00 0.00 0.00 56 1024.2
20171215125001 46 342 4.0 5.0 0.00 0.00 0.00 56 1023.8
20171215124001 46 36 1.0 8.0 0.00 0.00 0.00 55 1023.6
20171215123001 46 331 2.0 8.0 0.00 0.00 0.00 55 1023.6
20171215122001 46 5 4.0 8.0 0.00 0.00 0.00 55 1023.7
20171215121001 46 329 4.0 9.0 0.00 0.00 0.00 54 1023.6
20171215120001 46 259 1.0 9.0 0.00 0.00 0.00 54 1023.5
20171215115001 46 342 1.0 6.0 0.00 0.00 0.00 54 1023.5
20171215114001 46 28 2.0 7.0 0.00 0.00 0.00 53 1023.2
20171215113002 46 355 3.0 6.0 0.00 0.00 0.00 54 1022.8
20171215112001 46 355 2.0 9.0 0.00 0.00 0.00 54 1022.5
20171215111001 47 15 4.0 8.0 0.00 0.00 0.00 53 1022.8
20171215110002 47 14 2.0 5.0 0.00 0.00 0.00 53 1022.7
20171215105001 47 326 1.0 5.0 0.00 0.00 0.00 53 1022.7
20171215104001 47 19 2.0 6.0 0.00 0.00 0.00 52 1022.6
20171215103001 48 13 2.0 5.0 0.00 0.00 0.00 52 1022.6
20171215102002 48 59 5.0 12.0 0.00 0.00 0.00 51 1023.1
20171215101001 48 350 2.0 10.0 0.00 0.00 0.00 51 1023.1
20171215100001 48 46 2.0 9.0 0.00 0.00 0.00 52 1023.2
20171215095001 48 61 1.0 8.0 0.00 0.00 0.00 52 1023.1
20171215094001 48 348 1.0 6.0 0.00 0.00 0.00 53 1023.0
20171215093001 48 51 1.0 6.0 0.00 0.00 0.00 53 1022.8
20171215092001 48 20 1.0 6.0 0.00 0.00 0.00 52 1022.9
20171215091002 48 34 2.0 8.0 0.00 0.00 0.00 52 1022.6
20171215090002 48 5 2.0 13.0 0.00 0.00 0.00 51 1022.7
20171215085002 48 350 4.0 10.0 0.00 0.00 0.00 51 1022.4
20171215084002 49 16 4.0 10.0 0.00 0.00 0.00 51 1022.2
20171215083002 49 5 4.0 11.0 0.00 0.00 0.00 50 1022.1
20171215082002 49 348 3.0 14.0 0.00 0.00 0.00 50 1021.8
20171215081002 49 186 2.0 13.0 0.00 0.00 0.00 50 1021.5
20171215080002 49 53 5.0 14.0 0.00 0.00 0.00 50 1021.5
20171215075002 49 19 3.0 14.0 0.00 0.00 0.00 50 1021.4
20171215074002 49 36 6.0 13.0 0.00 0.00 0.00 51 1021.5
20171215073002 49 11 2.0 13.0 0.00 0.00 0.00 51 1021.5
20171215072002 49 38 1.0 12.0 0.00 0.00 0.00 52 1021.3
20171215071002 49 355 5.0 13.0 0.00 0.00 0.00 52 1021.0
20171215070002 49 34 6.0 13.0 0.00 0.00 0.00 54 1020.9
20171215065002 50 10 12.0 15.0 0.00 0.00 0.00 54 1020.7
20171215064002 50 30 3.0 12.0 0.00 0.00 0.00 53 1020.5
20171215063002 50 20 8.0 17.0 0.00 0.00 0.00 54 1020.3
20171215062002 51 194 6.0 16.0 0.00 0.00 0.00 50 1020.2
20171215061002 51 21 4.0 14.0 0.00 0.00 0.00 50 1020.4
20171215060002 52 346 4.0 17.0 0.00 0.00 0.00 47 1020.3
20171215055002 52 46 4.0 13.0 0.00 0.00 0.00 46 1020.4
20171215054002 52 29 6.0 14.0 0.00 0.00 0.00 43 1020.4
20171215053002 52 306 4.0 14.0 0.00 0.00 0.00 44 1020.4
20171215052002 53 15 1.0 10.0 0.00 0.00 0.00 44 1020.4
20171215051002 53 5 4.0 12.0 0.00 0.00 0.00 44 1020.1
20171215050002 53 20 2.0 16.0 0.00 0.00 0.00 44 1019.8
20171215045002 54 28 4.0 16.0 0.00 0.00 0.00 43 1019.5
20171215044002 54 19 9.0 13.0 0.00 0.00 0.00 43 1019.3
20171215043002 54 355 10.0 14.0 0.00 0.00 0.00 43 1019.3
20171215042002 54 5 6.0 13.0 0.00 0.00 0.00 43 1019.0
20171215041002 54 301 4.0 14.0 0.00 0.00 0.00 43 1018.9
20171215040002 54 18 9.0 18.0 0.00 0.00 0.00 43 1018.8
20171215035002 54 38 5.0 13.0 0.00 0.00 0.00 43 1018.7
20171215034003 54 355 8.0 14.0 0.00 0.00 0.00 44 1018.5
20171215033003 55 37 4.0 17.0 0.00 0.00 0.00 44 1018.1
20171215032002 55 32 4.0 13.0 0.00 0.00 0.00 44 1018.1
20171215031003 55 290 5.0 15.0 0.00 0.00 0.00 45 1018.1
20171215030003 55 5 10.0 13.0 0.00 0.00 0.00 45 1017.9
20171215025002 55 342 5.0 14.0 0.00 0.00 0.00 45 1017.9
20171215024002 55 39 6.0 12.0 0.00 0.00 0.00 45 1017.8
20171215023002 55 77 3.0 11.0 0.00 0.00 0.00 45 1017.6
20171215022003 55 329 9.0 10.0 0.00 0.00 0.00 45 1017.3
20171215021003 55 5 3.0 12.0 0.00 0.00 0.00 46 1017.1
20171215020003 55 54 4.0 13.0 0.00 0.00 0.00 46 1017.2
20171215015003 55 339 3.0 9.0 0.00 0.00 0.00 47 1017.1
20171215014003 55 349 4.0 8.0 0.00 0.00 0.00 47 1017.1
20171215013003 55 35 3.0 6.0 0.00 0.00 0.00 47 1016.6
20171215012003 55 49 3.0 8.0 0.00 0.00 0.00 47 1016.4
20171215011003 55 63 1.0 5.0 0.00 0.00 0.00 47 1016.3
20171215010003 56 11 1.0 6.0 0.00 0.00 0.00 47 1016.3
20171215005003 56 49 2.0 5.0 0.00 0.00 0.00 46 1016.1
20171215004003 56 49 3.0 6.0 0.00 0.00 0.00 46 1015.9
20171215003003 56 28 3.0 9.0 0.00 0.00 0.00 46 1015.4
20171215002003 56 22 1.0 6.0 0.00 0.00 0.00 46 1015.4
20171215001003 56 22 3.0 8.0 0.00 0.00 0.00 47 1015.2
20171215000003 56 47 2.0 9.0 0.00 0.00 0.00 48 1015.3
20171214235003 56 22 2.0 8.0 0.00 0.00 0.00 49 1015.2
20171214234003 57 27 3.0 9.0 0.00 0.00 0.00 48 1014.9
20171214233003 57 40 5.0 9.0 0.00 0.00 0.00 48 1014.8